[[{"header":{"parameterUnit":"m.s-1","parameterCategory":1,"la1":30.2991,"la2":30.254,"lo1":-89.0895,"lo2":-89.0444,"dy":0.0017,"dx":0.0017,"nx":28,"ny":28,"refTime":"2023-10-12T21:00:00:Z","depth":0,"parameterNumber":2,"parameterNumberName":"U-component_of_WINDS"},"data":[0,0,0,0,0,0,0,0,0,0,0,0,0,0,0,0,0,0,0,0,0,0,0,0,0,0,0,0,0,0,0,0,0,0,0,0,0,0,0,0,0,0,0,0,0,0,0,0,0,0,0,0,0,0,0,0,0,0,-3.7498,-3.7497,0,-3.7464,-3.7463,-3.7463,-3.7345,-3.7343,-3.734,-3.7337,-3.7306,-3.7307,-3.7309,0,0,0,0,0,0,0,0,0,0,0,0,0,-3.7464,-3.7465,-3.7498,-3.7497,-3.7497,-3.7464,-3.7463,-3.7463,-3.7346,-3.7343,-3.7339,-3.7336,-3.7305,-3.7307,-3.7309,0,0,0,0,0,0,0,0,0,0,0,0,0,-3.7459,-3.7465,-3.7498,-3.7434,-3.7428,-3.7464,-3.7463,-3.7463,-3.7346,-3.7342,-3.7338,-3.7335,-3.7305,-3.7307,-3.7309,-3.7404,0,0,-3.7317,-3.7318,0,0,0,0,0,0,0,0,-3.746,-3.7461,-3.7444,-3.7439,-3.7432,-3.7404,-3.7439,-3.7443,-3.7347,-3.7378,-3.7337,-3.7333,-3.7342,-3.7341,-3.7344,-3.7403,-3.7401,-3.7317,-3.7319,-3.732,-3.732,0,0,0,0,0,0,0,-3.746,-3.7461,-3.7484,-3.7444,-3.7437,-3.7408,-3.7403,-3.744,-3.7383,-3.7375,-3.7366,-3.7364,-3.7338,-3.7342,-3.7342,-3.7401,-3.7317,-3.7319,-3.7321,-3.7322,-3.7535,-3.7539,0,0,0,0,0,0,-3.7469,-3.7462,-3.7485,-3.7483,-3.7436,-3.7412,-3.7407,-3.7417,-3.7382,-3.7373,-3.7367,-3.7358,-3.7339,-3.7339,-3.7341,-3.7448,-3.732,-3.7322,-3.7323,-3.7531,-3.7536,-3.7541,0,0,0,0,0,0,-3.7469,-3.7472,-3.7487,-3.747,-3.747,-3.7417,-3.743,-3.7419,-3.7422,-3.7376,-3.7366,-3.7381,-3.7336,-3.7337,-3.7389,-3.7445,-3.7323,-3.7325,-3.7526,-3.7533,-3.7539,-3.7665,0,0,0,0,0,0,-3.7468,-3.7473,-3.7508,-3.7472,-3.7471,-3.7535,-3.7434,-3.7421,-3.7426,-3.7415,-3.7386,-3.7378,-3.7333,-3.7386,-3.7391,-3.7447,-3.7327,-3.7521,-3.7529,-3.7537,-3.7656,-3.7675,-3.7692,0,0,0,0,0,-3.7467,-3.7546,-3.751,-3.7513,-3.7514,-3.7539,-3.7538,-3.7484,-3.7431,-3.7466,-3.7437,-3.7379,-3.7439,-3.7392,-3.7397,-3.7454,-3.7517,-3.7527,-3.7536,-3.7648,-3.7671,-3.7691,0,0,0,0,0,0,-3.759,-3.754,-3.75,-3.7568,-3.7559,-3.7519,-3.7561,-3.7511,-3.7517,-3.7506,-3.744,-3.7434,-3.7496,-3.748,-3.7429,-3.7544,-3.7468,-3.7479,-3.7551,-3.7573,-3.7591,-3.7593,-3.7329,0,0,0,0,0,-3.7625,-3.7649,-3.7604,-3.7669,-3.7666,-3.7615,-3.7623,-3.7583,-3.757,-3.7566,-3.754,-3.7531,-3.7547,-3.756,-3.7572,-3.7653,-3.7645,-3.7695,-3.7713,-3.7728,-3.7738,-3.7779,-3.78,-3.7572,-3.7572,-3.7572,0,0,-3.7698,-3.7673,-3.7692,-3.7693,-3.768,-3.7706,-3.7612,-3.7644,-3.7663,-3.7571,-3.7617,-3.7599,-3.7584,-3.7651,-3.7679,-3.764,-3.7799,-3.774,-3.7752,-3.7754,-3.7791,-3.7812,-3.7832,-3.7578,-3.7577,-3.7576,0,0,-3.7843,-3.7828,-3.7879,-3.7868,-3.785,-3.7816,-3.7828,-3.7796,-3.7779,-3.7825,-3.7756,-3.7779,-3.7809,-3.7801,-3.7801,-3.7944,-3.7891,-3.795,-3.8044,-3.8084,-3.8102,-3.8118,-3.8168,-3.8186,-3.7961,-3.7961,-3.7961,0,-3.7936,-3.7972,-3.7912,-3.7948,-3.795,-3.7868,-3.7919,-3.7912,-3.7901,-3.7904,-3.7861,-3.7896,-3.7881,-3.7944,-3.7979,-3.7982,-3.7994,-3.7952,-3.8104,-3.8119,-3.8133,-3.818,-3.8199,-3.7968,-3.7967,-3.7967,-3.7966,0,-3.8087,-3.8113,-3.8157,-3.8145,-3.8153,-3.8197,-3.8145,-3.8159,-3.8119,-3.8089,-3.8137,-3.8115,-3.8122,-3.8134,-3.8095,-3.8192,-3.8168,-3.8116,-3.8038,-3.8163,-3.8206,-3.8223,-3.7978,-3.7976,-3.7974,-3.7972,0,0,-3.8308,-3.8262,-3.8279,-3.8273,-3.8247,-3.8266,-3.8307,-3.8312,-3.8326,-3.8321,-3.8353,-3.8381,-3.8331,-3.8332,-3.8291,-3.8327,-3.8441,-3.827,-3.8269,-3.8301,-3.8545,-3.8584,-3.8606,-3.8406,-3.8409,-3.8411,-3.8546,0,-3.8445,-3.851,-3.8457,-3.8533,-3.8556,-3.8477,-3.8513,-3.8501,-3.8475,-3.8492,-3.8463,-3.8483,-3.8417,-3.8417,-3.8449,-3.842,-3.8488,-3.841,-3.8435,-3.8437,-3.844,-3.8628,-3.8669,-3.8797,-3.8562,-3.8565,-3.8567,0,-3.8613,-3.8614,-3.8691,-3.8659,-3.8667,-3.8699,-3.8699,-3.8716,-3.8702,-3.868,-3.8681,-3.863,-3.8669,-3.8594,-3.8646,-3.8594,-3.8601,-3.8589,-3.8592,-3.8592,-3.8509,-3.8631,-3.8836,-3.8855,-3.8593,-3.8591,-3.8589,0,-3.8765,-3.8786,-3.8834,-3.8831,-3.8795,-3.882,-3.8807,-3.8788,-3.8794,-3.8795,-3.8799,-3.8805,-3.8808,-3.8815,-3.8768,-3.8718,-3.8826,-3.8747,-3.8809,-3.881,-3.8834,-3.8833,-3.9042,-3.8842,-3.8842,-3.8841,-3.8841,0,-3.8923,-3.8973,-3.8901,-3.8931,-3.8985,-3.8925,-3.898,-3.8959,-3.8943,-3.8967,-3.8901,-3.8926,-3.8863,-3.8882,-3.8846,-3.8894,-3.8897,-3.888,-3.887,-3.8885,-3.8887,-3.8888,-3.8878,-3.8846,-3.8845,-3.8844,-3.8843,0,-3.9101,-3.9055,-3.9102,-3.9065,-3.9056,-3.9098,-3.9066,-3.9092,-3.9061,-3.9093,-3.9098,-3.905,-3.9069,-3.9023,-3.9035,-3.9011,-3.9079,-3.9056,-3.9084,-3.9076,-3.914,-3.9134,-3.9356,-3.9381,-3.9167,-3.9169,-3.917,0,-3.9204,-3.924,-3.9206,-3.9217,-3.9206,-3.9226,-3.9231,-3.9174,-3.9183,-3.9169,-3.9197,-3.921,-3.9217,-3.925,-3.9218,-3.9227,-3.9202,-3.9279,-3.9203,-3.9217,-3.9201,-3.9199,-3.9202,-3.9294,-3.9297,-3.9299,-3.9301,0,-3.9391,-3.9366,-3.9376,-3.9379,-3.9387,-3.9386,-3.9381,-3.9395,-3.9333,-3.9347,-3.9364,-3.937,-3.9381,-3.9395,-3.9397,-3.9384,-3.9333,-3.9325,-3.934,-3.9355,-3.9369,-3.9361,-3.9125,-3.932,-3.9318,-3.9317,-3.9316,-3.9315,-3.9533,-3.9562,-3.9541,-3.9555,-3.9545,-3.9541,-3.9564,-3.9536,-3.9549,-3.9552,-3.9518,-3.9543,-3.9528,-3.9524,-3.9517,-3.9536,-3.9501,-3.9522,-3.9528,-3.9533,-3.9543,-3.9368,-3.9536,-3.9536,-3.9535,-3.9535,-3.9534,0,-3.9716,-3.9699,-3.9712,-3.9706,-3.9717,-3.9666,-3.9658,-3.9671,-3.9693,-3.9682,-3.969,-3.971,-3.9723,-3.9691,-3.9699,-3.9721,-3.9697,-3.9725,-3.9722,-3.972,-3.9575,-3.9561,-3.9743,-3.9743,-3.9743,-3.9743,-3.9743,-3.9743,-3.9812,-3.9856,-3.9829,-3.9869,-3.9851,-3.9873,-3.9873,-3.987,-3.9861,-3.9886,-3.9895,-3.9874,-3.9855,-3.9862,-3.9871,-3.9862,-3.9868,-3.9903,-3.9885,-3.975,-3.973,-3.971,-3.9697,-3.9905,-3.9905,-4.0028,-4.0029,-4.003]},{"header":{"parameterUnit":"m.s-1","parameterCategory":1,"la1":30.2991,"la2":30.254,"lo1":-89.0895,"lo2":-89.0444,"dy":0.0017,"dx":0.0017,"nx":28,"ny":28,"refTime":"2023-10-12T21:00:00:Z","depth":0,"parameterNumber":3,"parameterNumberName":"V-component_of_WINDS"},"data":[0,0,0,0,0,0,0,0,0,0,0,0,0,0,0,0,0,0,0,0,0,0,0,0,0,0,0,0,0,0,0,0,0,0,0,0,0,0,0,0,0,0,0,0,0,0,0,0,0,0,0,0,0,0,0,0,0,0,-3.7326,-3.7327,0,-3.7425,-3.7426,-3.7427,-3.7403,-3.7401,-3.7399,-3.7397,-3.7498,-3.7503,-3.7507,0,0,0,0,0,0,0,0,0,0,0,0,0,-3.7114,-3.7118,-3.7326,-3.7327,-3.7328,-3.7425,-3.7426,-3.7427,-3.7403,-3.7401,-3.7398,-3.7396,-3.7497,-3.7502,-3.7507,0,0,0,0,0,0,0,0,0,0,0,0,0,-3.7209,-3.7119,-3.7325,-3.7328,-3.7329,-3.7425,-3.7426,-3.7428,-3.7404,-3.7401,-3.7398,-3.7395,-3.7495,-3.7502,-3.7508,-3.7608,0,0,-3.7529,-3.7532,0,0,0,0,0,0,0,0,-3.7204,-3.7217,-3.7326,-3.7328,-3.7329,-3.7399,-3.7389,-3.7488,-3.7404,-3.7375,-3.7397,-3.7394,-3.7467,-3.7476,-3.7501,-3.7612,-3.7617,-3.7529,-3.7533,-3.7536,-3.7538,0,0,0,0,0,0,0,-3.7197,-3.7212,-3.7365,-3.7328,-3.733,-3.7323,-3.7334,-3.7407,-3.7436,-3.7378,-3.7376,-3.7388,-3.7468,-3.7495,-3.7503,-3.7618,-3.7529,-3.7535,-3.7539,-3.7542,-3.7815,-3.7818,0,0,0,0,0,0,-3.7189,-3.7207,-3.7362,-3.7368,-3.7258,-3.733,-3.7341,-3.7379,-3.7435,-3.7441,-3.739,-3.7387,-3.7485,-3.7495,-3.7507,-3.7626,-3.7536,-3.7543,-3.7546,-3.7812,-3.7816,-3.7819,0,0,0,0,0,0,-3.7185,-3.7203,-3.7358,-3.7287,-3.7306,-3.7336,-3.7379,-3.7383,-3.741,-3.7445,-3.745,-3.7413,-3.7483,-3.7497,-3.7583,-3.763,-3.7546,-3.7552,-3.7808,-3.7813,-3.7818,-3.7867,0,0,0,0,0,0,-3.7179,-3.7202,-3.724,-3.7288,-3.731,-3.7432,-3.7382,-3.7387,-3.7421,-3.7417,-3.7468,-3.7473,-3.7482,-3.7573,-3.7589,-3.7637,-3.7557,-3.7804,-3.781,-3.7816,-3.7861,-3.7873,-3.7883,0,0,0,0,0,-3.7171,-3.725,-3.7242,-3.7261,-3.7359,-3.7435,-3.7448,-3.7456,-3.7425,-3.7464,-3.7487,-3.7471,-3.7622,-3.7582,-3.76,-3.7651,-3.7801,-3.7809,-3.7816,-3.7856,-3.7871,-3.7883,0,0,0,0,0,0,-3.7207,-3.7256,-3.7248,-3.7345,-3.7386,-3.7431,-3.748,-3.7471,-3.7521,-3.7515,-3.7523,-3.7535,-3.7622,-3.7645,-3.7599,-3.775,-3.7707,-3.7718,-3.7732,-3.7745,-3.7756,-3.7749,-3.7563,0,0,0,0,0,-3.7226,-3.7284,-3.7324,-3.7405,-3.7427,-3.745,-3.7483,-3.7486,-3.7529,-3.7546,-3.7575,-3.7617,-3.7674,-3.7711,-3.7765,-3.7864,-3.7875,-3.7909,-3.7919,-3.7928,-3.7938,-3.7991,-3.8007,-3.7843,-3.7843,-3.7843,0,0,-3.7266,-3.73,-3.7336,-3.7413,-3.7446,-3.7505,-3.7465,-3.7529,-3.7574,-3.7556,-3.7638,-3.7661,-3.7708,-3.7801,-3.7843,-3.7823,-3.7985,-3.7937,-3.7944,-3.7949,-3.8001,-3.8016,-3.803,-3.7848,-3.7847,-3.7847,0,0,-3.7369,-3.7401,-3.7472,-3.7505,-3.7554,-3.7569,-3.7586,-3.7633,-3.7647,-3.773,-3.7718,-3.777,-3.7868,-3.7902,-3.7932,-3.8048,-3.8036,-3.8065,-3.8122,-3.8174,-3.8187,-3.8198,-3.8239,-3.8254,-3.8075,-3.8075,-3.8075,0,-3.7412,-3.7502,-3.751,-3.7576,-3.761,-3.7597,-3.7669,-3.77,-3.7765,-3.7788,-3.7764,-3.7886,-3.7917,-3.8018,-3.8046,-3.8071,-3.809,-3.806,-3.8184,-3.8196,-3.8207,-3.8246,-3.8261,-3.8078,-3.8078,-3.8078,-3.8077,0,-3.7553,-3.7615,-3.7667,-3.7729,-3.7769,-3.7838,-3.7855,-3.7895,-3.7894,-3.7911,-3.7996,-3.8032,-3.8093,-3.8117,-3.8118,-3.8218,-3.8204,-3.8182,-3.8139,-3.8226,-3.8262,-3.8278,-3.8083,-3.8082,-3.8081,-3.808,0,0,-3.7681,-3.7747,-3.7766,-3.7794,-3.7847,-3.7895,-3.7963,-3.8023,-3.8056,-3.8101,-3.8158,-3.8241,-3.8221,-3.8255,-3.8259,-3.8305,-3.8394,-3.8278,-3.8279,-3.8298,-3.8507,-3.8522,-3.8539,-3.8386,-3.8389,-3.8392,-3.8502,0,-3.7789,-3.7908,-3.7917,-3.8025,-3.8083,-3.8071,-3.813,-3.8169,-3.8187,-3.8238,-3.8257,-3.8316,-3.8286,-3.8306,-3.8351,-3.8374,-3.8436,-3.8366,-3.8439,-3.8442,-3.8427,-3.8559,-3.8576,-3.8678,-3.8517,-3.8519,-3.8521,0,-3.793,-3.7979,-3.8093,-3.8138,-3.8162,-3.8215,-3.8271,-3.832,-3.8364,-3.8373,-3.8412,-3.8409,-3.8478,-3.8433,-3.8528,-3.848,-3.8511,-3.8526,-3.8531,-3.8538,-3.8486,-3.8569,-3.8711,-3.8727,-3.8544,-3.8542,-3.8541,0,-3.8012,-3.8107,-3.8187,-3.8211,-3.8266,-3.8303,-3.8327,-3.8368,-3.8404,-3.8452,-3.8475,-3.8531,-3.8561,-3.8604,-3.8617,-3.8583,-3.8712,-3.8668,-3.8721,-3.8721,-3.8749,-3.8747,-3.8898,-3.8769,-3.8769,-3.8769,-3.8768,0,-3.8131,-3.8201,-3.8224,-3.8273,-3.8351,-3.836,-3.8437,-3.8459,-3.8496,-3.8549,-3.8542,-3.8592,-3.8605,-3.8658,-3.8668,-3.8745,-3.8759,-3.8769,-3.877,-3.8769,-3.8768,-3.8789,-3.8782,-3.8773,-3.8772,-3.8771,-3.877,0,-3.8235,-3.8254,-3.834,-3.8385,-3.8397,-3.8453,-3.8491,-3.8538,-3.8555,-3.8622,-3.8638,-3.8665,-3.8726,-3.8743,-3.8816,-3.8823,-3.8914,-3.8909,-3.8899,-3.8899,-3.8952,-3.8946,-3.9121,-3.9145,-3.9001,-3.9002,-3.9003,0,-3.831,-3.8364,-3.8414,-3.8449,-3.8475,-3.8532,-3.8568,-3.8579,-3.8616,-3.867,-3.8711,-3.8771,-3.882,-3.8918,-3.8944,-3.9,-3.8996,-3.9054,-3.9005,-3.9002,-3.8997,-3.8994,-3.8999,-3.9063,-3.9065,-3.9066,-3.9067,0,-3.844,-3.8447,-3.8499,-3.8555,-3.8598,-3.8642,-3.8685,-3.8714,-3.8731,-3.8773,-3.8836,-3.8874,-3.8949,-3.9009,-3.9065,-3.909,-3.9082,-3.9082,-3.9098,-3.9097,-3.9089,-3.9093,-3.8924,-3.9078,-3.9077,-3.9076,-3.9076,-3.9075,-3.8532,-3.8579,-3.8621,-3.868,-3.8713,-3.8753,-3.8799,-3.8822,-3.8874,-3.8936,-3.8939,-3.9007,-3.9049,-3.9124,-3.9152,-3.9205,-3.9188,-3.9211,-3.9216,-3.9221,-3.9226,-3.908,-3.9216,-3.9215,-3.9215,-3.9215,-3.9215,0,-3.8662,-3.8688,-3.8742,-3.8802,-3.8848,-3.8836,-3.8882,-3.8921,-3.8981,-3.9021,-3.9069,-3.9141,-3.9199,-3.9229,-3.9287,-3.9323,-3.9321,-3.9338,-3.9335,-3.9341,-3.9238,-3.9219,-3.9339,-3.9339,-3.9339,-3.9339,-3.9339,-3.9339,-3.8735,-3.8813,-3.8825,-3.8919,-3.8946,-3.9012,-3.904,-3.9076,-3.9108,-3.9189,-3.9237,-3.9256,-3.9292,-3.9352,-3.9405,-3.9412,-3.9434,-3.9453,-3.9458,-3.9361,-3.9349,-3.9336,-3.9318,-3.9458,-3.9458,-3.9557,-3.9558,-3.9559]}]]